SCP
0 0 0 0 0 0 0 0 0 0 0 0 0 0 0 0 0 0 0 0 0 0 0 0 0 0 0 0 0 0 0 0 0 0 0 0 -0 0 0 0 0 0 -0
0 0 0 0 0 0 0 0 0 0 0 0 0 0 0 0 0 0 0 0 0 0 -0 0 0 0 0 0 0 0 0 0 0 0 0 0 -0 -0 -0 0 0 0 0
0 0 0 0 0 0 0 0 0 0 0 0 0 0 0 0 0 0 0 0 0 0 0 0 0 0 0 0 0 0 0 0 0 0 0 -0 -0 -0 -0 0 0 0 -0
0 0 0 0 0 0 0 0 0 0 0 0 0 0 0 0 0 0 0 0 0 0 0 0 0 0 0 0 0 0 0 0 0 0 -0 -0 -0 -0 0 0 0 -0 -0
0 0 0 0 0 0 0 0 0 0 0 0 0 0 0 0 0 0 0 0 0 0 0 0 0 0 0 0 0 0 0 0 0 -0 -0 -0 -0 0 -0 0 -0 -0 -0
0 -0 -0 -0 0 0 0 0 0 0 0 0 0 0 0 0 0 0 0 0 0 0 0 0 0 0 0 0 0 0 0 0 0 -0 -0 -0 -0 -0 -0 -0 -0 -0 -0
0 -0 -0 -0 0 0 -0 0 0 0 0 0 0 0 0 0 0 0 0 0 0 0 0 0 0 0 0 0 0 0 0 0 0 0 -0 -0 -0 -0 -0 -0 -0 -0 -0
-0 0 0 0 -0 -0 0 0 0 0 0 0 0 0 0 0 0 0 0 0 0 0 0 0 0 0 0 0 0 0 0 0 0 -0 -0 -0 -0 -0 -0 -0 -0 -0 -0
0 0 0 -0 -0 -0 0 0 0 0 0 0 0 0 0 0 0 0 0 0 0 0 0 0 0 0 0 0 0 0 0 0 -0 -0 -0 -0 -0 -0 -0 -0 -0 -0 -0
0 0 0 0 0 0 0 0 0 0 0 0 0 0 0 0 0 0 0 0 0 0 0 0 0 0 0 0 0 0 0 0 0 -0 -0 -0 -0 0 -0 0 -0 -0 -0
0 0 0 0 0 0 0 0 0 0 0 0 0 0 0 0 0 0 0 0 0 0 0 0 0 0 0 0 0 0 0 0 -0 -0 -0 -0 -0 0 0 0 -0 -0 -0
0 0 0 0 0 0 0 0 0 0 0 0 0 0 0 0 0 0 0 0 0 0 0 0 0 0 0 0 0 0 0 0 -0 -0 -0 0 0 0 0 0 0 -0 0
0 0 0 0 0 0 0 0 0 0 0 0 0 0 0 0 0 0 0 0 0 0 0 0 0 0 0 0 0 0 0 -0 -0 -0 -0 0 0 0 0 0 0 0 0
0 0 0 0 0 0 0 0 0 0 0 0 0 0 0 0 0 0 0 0 0 0 0 0 0 0 0 0 0 0 0 -0 -0 0 0 0 0 0 0 0 0 0 0
0 0 0 0 0 0 0 0 0 0 0 0 0 0 0 0 0 0 0 0 0 0 0 0 0 0 0 0 0 0 0 0 -0 0 0 0 0 0 0 0 0 0 0
-0 -0 0 0 0 0 0 0 0 0 -0 0 0 0 0 0 0 0 0 0 0 0 0 0 0 0 0 0 0 -0 0 0 0 0 0 0 0 0 0 0 0 0 0
-0 -0 0 0 0 0 0 0 -0 0 0 0 0 0 -0 -0 0 0 0 0 0 0 0 0 0 0 0 0 -0 -0 0 0 0 0 0 0 0 0 0 0 0 0 0
-0 -0 -0 0 0 0 0 0 0 -0 0 -0 -0 -0 -0 -0 0 0 0 0 0 0 -0 0 0 0 0 0 0 -0 0 0 0 0 0 0 0 0 0 0 0 0 0
-0 -0 -0 -0 -0 0 0 0 -0 -0 -0 0 0 -0 -0 0 0 0 0 0 0 0 0 0 0 0 0 0 0 0 0 0 0 0 0 0 0 0 0 0 0 0 0
-0 -0 -0 -0 -0 0 0 0 0 0 0 0 0 0 0 0 0 0 0 0 0 0 0 0 0 0 0 0 0 0 0 0 0 0 0 0 0 0 0 0 0 0 0
-0 -0 -0 -0 0 0 -0 -0 0 0 -0 0 0 0 0 0 0 0 0 0 0 0 -0 -0 0 0 0 0 0 0 0 0 0 0 0 0 0 0 0 0 0 0 0
-0 -0 -0 -0 0 0 -0 -0 -0 -0 -0 -0 -0 0 0 0 0 0 -0 0 -0 0 0 0 0 0 0 0 0 0 0 0 0 0 0 0 0 0 0 0 0 0 0
0 0 -0 -0 -0 0 -0 0 -0 -0 -0 -0 -0 -0 0 0 0 -0 -0 -0 -0 -0 0 0 0 0 0 0 0 0 0 0 0 0 0 0 0 0 0 0 0 0 0
0 -0 0 -0 -0 0 -0 -0 -0 0 0 0 0 0 -0 0 -0 -0 -0 -0 -0 -0 -0 -0 -0 0 0 0 0 0 0 0 0 0 0 0 0 0 0 0 0 0 0
-0 -0 -0 -0 -0 -0 -0 -0 -0 0 0 0 0 0 0 -0 -0 -0 -0 -0 -0 -0 -0 -0 -0 -0 -0 -0 0 0 0 0 0 0 0 0 0 0 0 0 0 0 0
-0 0 0 0 0 0 -0 -0 -0 -0 -0 0 0 -0 -0 -0 -0 -0 -0 -0 -0 0 -0 -0 -0 -0 -0 -0 -0 0 0 0 0 0 0 0 0 0 0 0 0 0 0
Wind_Speed_500mb
34 33 31 29 26 26 26 23 22 26 23 28 33 33 34 41 40 46 61 63 46 34 25 22 35 35 33 25 18 18 17 14 16 20 19 20 18 11 7 10 13 23 25
33 31 26 22 20 24 24 22 22 23 24 34 32 35 36 37 40 51 67 51 42 27 21 28 32 33 35 27 21 21 21 16 18 21 19 19 8 7 11 11 18 24 23
30 26 19 16 17 20 19 19 20 24 32 37 32 33 36 41 50 60 50 35 37 29 25 23 31 33 35 29 26 24 20 18 19 23 19 10 5 13 14 23 22 22 23
20 14 11 10 12 10 12 20 19 18 32 29 42 40 46 55 49 37 28 30 27 34 38 37 33 30 40 34 30 23 21 24 22 25 18 6 10 18 16 19 21 22 23
11 7 7 6 5 13 12 15 16 18 24 30 33 43 49 46 39 37 35 37 44 47 43 36 31 31 46 41 29 24 29 27 25 26 14 6 10 17 16 16 20 22 20
13 10 7 4 8 12 13 15 17 15 23 27 34 49 51 40 41 40 40 44 44 38 35 34 29 26 31 40 28 26 28 27 26 22 9 9 13 14 14 19 20 21 21
12 3 2 4 10 10 13 7 10 16 23 39 61 48 47 57 41 46 44 41 35 25 29 36 41 41 37 30 25 24 27 28 23 18 9 7 15 13 15 19 19 20 20
10 9 6 7 8 9 8 3 13 18 29 35 38 42 29 38 60 56 42 40 43 44 44 48 43 28 18 16 32 28 24 26 21 16 9 9 10 15 13 14 15 18 18
11 9 6 10 17 2 5 12 17 23 26 43 44 29 25 19 64 63 64 69 67 55 41 35 28 23 30 23 26 24 21 26 22 15 7 10 10 12 8 15 18 13 16
10 9 5 13 19 10 6 17 16 29 33 46 43 40 22 66 37 44 66 55 55 49 44 33 29 26 25 26 19 18 20 24 19 15 5 7 4 8 7 12 10 12 14
9 8 7 10 15 4 7 8 13 29 22 38 58 46 44 58 67 69 60 65 56 54 45 28 20 16 19 16 14 16 20 22 21 15 4 2 11 8 9 7 5 8 9
8 4 6 7 10 6 1 12 3 12 29 35 48 44 53 68 66 52 61 50 47 43 36 29 28 22 16 11 10 17 21 20 15 12 8 9 15 20 20 17 6 4 5
5 4 6 6 5 9 14 12 13 21 27 43 34 47 57 67 48 31 35 51 40 36 31 32 27 17 12 4 10 15 17 15 13 14 4 12 16 19 21 24 13 9 11
6 3 3 7 9 10 9 9 8 19 32 41 38 37 29 41 41 37 49 52 46 31 28 24 16 16 12 11 11 11 15 16 12 9 9 11 18 20 25 23 17 14 15
7 3 4 4 5 5 9 12 12 16 30 29 32 32 28 34 30 20 40 47 49 31 25 23 21 18 14 12 11 8 9 13 8 7 7 12 19 22 25 25 22 21 21
7 6 3 5 6 10 12 14 13 26 34 39 38 21 31 34 36 34 44 44 39 34 28 27 21 19 20 16 17 11 10 12 7 7 6 11 17 18 21 27 27 24 21
9 7 6 6 10 16 6 9 18 18 31 34 30 24 22 33 40 38 42 42 37 21 5 21 24 22 25 18 15 15 13 11 5 7 7 13 16 19 20 23 27 27 27
9 8 8 8 11 14 14 21 24 34 36 30 35 29 34 40 37 33 32 34 37 27 18 16 30 29 22 23 19 14 14 9 6 7 9 14 18 14 18 24 30 36 38
14 17 14 12 20 17 19 20 30 34 39 35 37 37 43 36 31 25 15 25 26 24 12 11 23 25 21 22 17 12 5 2 3 3 8 15 16 17 21 27 31 36 41
11 17 17 26 29 23 20 34 31 31 33 38 39 39 36 29 24 22 27 25 23 17 14 17 20 25 22 21 15 9 9 6 4 6 9 13 14 19 23 29 33 35 38
24 28 30 29 22 23 25 30 39 32 38 40 32 37 32 30 23 24 26 22 16 17 16 17 21 23 22 20 17 15 13 9 4 2 4 4 8 15 22 27 27 28 31
31 32 31 26 17 25 27 30 40 40 44 33 30 30 38 31 29 22 19 17 18 15 21 18 21 19 19 22 22 19 18 17 11 9 4 6 12 15 15 19 24 23 24
34 33 31 26 24 31 31 28 33 48 38 29 27 30 29 23 18 22 21 26 30 25 18 16 14 14 16 15 11 12 13 15 14 9 8 2 5 9 12 15 19 26 30
30 27 22 25 25 33 31 30 31 36 36 30 28 27 24 20 21 20 24 32 31 26 20 18 17 15 14 11 9 7 8 8 7 5 6 7 3 4 8 16 22 28 30
30 27 22 24 25 31 33 29 29 39 36 31 30 29 30 29 25 23 27 26 23 22 19 15 12 10 10 9 8 7 6 4 3 8 11 7 4 2 4 12 20 26 28
25 27 25 26 27 33 33 36 30 36 38 36 31 36 34 33 35 32 21 20 21 19 16 13 13 11 10 7 6 6 4 3 6 9 7 9 8 6 1 10 18 19 24
Wind_Direction_500mb
302 298 294 288 276 266 254 241 241 227 229 214 211 229 204 217 208 198 191 189 171 165 149 159 173 172 177 183 168 149 151 114 111 115 109 109 114 92 64 16 43 71 66
309 306 301 291 272 258 242 239 240 229 209 209 208 209 207 213 205 190 183 165 149 145 117 155 177 180 177 186 168 165 136 119 120 118 116 132 109 29 5 8 74 72 69
309 307 298 279 270 259 244 241 242 235 209 205 191 197 201 185 171 156 153 174 186 203 212 196 190 189 181 181 165 151 130 132 127 123 136 118 40 2 11 79 81 80 70
309 310 300 275 277 305 244 234 243 220 209 211 207 203 194 178 166 175 185 186 199 183 181 180 192 196 185 167 159 147 139 133 127 136 144 106 14 7 63 79 79 73 67
315 303 295 280 311 311 235 214 239 209 202 199 200 199 196 186 197 183 185 177 177 181 175 177 191 203 169 162 147 136 137 131 133 144 146 97 17 4 73 89 84 78 66
336 331 312 304 313 307 216 221 235 224 200 191 178 172 166 181 188 182 190 182 180 174 176 178 189 162 130 140 133 139 141 138 143 147 130 37 21 16 93 86 75 72 63
322 257 5 351 337 324 236 260 205 204 198 205 153 167 153 190 184 184 177 177 168 161 157 186 165 136 132 123 126 131 142 134 149 146 115 55 14 54 94 87 81 71 58
54 73 38 5 346 302 240 277 212 201 194 196 157 155 135 147 134 149 165 151 139 136 143 127 115 117 117 141 135 141 128 140 148 137 111 52 48 58 107 97 90 70 57
45 58 41 7 5 340 233 271 223 190 183 171 191 166 137 124 122 129 140 134 133 134 119 117 112 144 154 159 149 144 138 138 148 137 140 17 43 79 96 86 79 61 53
54 51 21 344 6 42 80 11 188 190 182 188 195 182 169 156 130 111 124 132 144 143 132 136 124 135 140 156 160 156 155 149 148 153 172 348 109 93 35 75 79 61 48
70 49 8 335 15 6 60 16 192 192 224 199 175 176 163 148 138 132 121 126 125 132 142 136 137 150 140 151 155 154 156 161 165 179 195 296 310 17 4 55 60 51 39
79 62 357 347 43 64 109 22 339 189 186 179 173 191 177 165 145 137 127 127 136 133 140 135 163 146 146 144 156 158 161 164 170 178 211 283 327 341 330 329 291 336 338
84 60 350 30 31 79 144 86 62 188 160 181 177 193 180 164 169 176 189 161 151 141 141 167 155 146 138 157 161 164 168 177 184 198 262 329 325 320 317 314 293 291 315
161 204 339 41 46 116 130 110 117 115 176 183 171 167 214 220 229 182 181 172 154 159 164 159 157 167 165 186 180 178 181 186 199 227 248 303 335 333 331 321 316 306 303
197 159 109 42 54 167 112 132 144 140 143 147 145 151 156 160 167 178 183 166 171 158 166 178 183 182 184 196 189 210 187 178 228 233 263 307 329 334 337 341 342 327 316
202 187 140 73 99 137 108 126 150 146 150 146 153 162 170 188 182 167 156 154 161 161 175 193 193 198 200 194 188 194 198 192 222 236 303 326 320 331 336 353 354 345 331
185 202 170 141 134 148 145 135 127 149 180 172 165 152 149 160 149 156 167 177 190 199 152 181 200 196 199 195 195 207 206 214 255 272 281 319 318 336 337 343 344 337 327
200 189 184 160 162 165 132 120 128 134 138 153 173 154 149 142 154 167 175 189 202 215 228 225 201 196 192 193 195 210 211 219 257 294 332 341 320 329 331 340 335 332 328
206 194 187 175 163 154 154 127 134 132 139 141 149 153 156 154 142 152 161 163 171 197 197 173 185 188 186 188 188 190 177 259 262 8 333 321 322 314 315 321 318 316 318
180 162 162 156 152 139 130 145 147 133 146 139 141 152 155 163 173 161 163 174 175 171 153 155 166 166 169 173 183 175 173 196 245 310 323 316 311 317 320 315 312 309 310
146 139 141 149 154 148 146 152 151 143 148 146 141 154 155 161 163 169 180 180 169 163 157 139 151 152 154 162 162 171 184 189 175 247 306 324 309 307 308 313 315 317 317
138 139 140 141 138 161 149 147 155 154 148 145 141 142 146 142 151 163 176 188 161 152 146 146 152 160 159 166 174 170 160 151 162 172 223 295 313 322 355 10 10 6 7
142 147 146 146 147 141 145 152 157 168 163 162 164 157 164 162 178 167 166 158 145 142 128 115 119 133 149 149 151 151 161 187 189 182 221 216 3 357 7 6 12 4 357
154 157 155 155 157 149 149 156 159 164 172 176 178 179 186 180 171 175 162 159 154 148 148 137 138 143 140 144 155 173 185 189 187 153 147 148 79 20 14 3 357 355 355
166 170 177 168 171 175 167 174 181 187 181 180 180 175 183 177 165 161 162 160 153 149 143 139 141 136 131 135 137 147 158 152 129 95 103 108 64 332 331 8 8 1 359
184 183 186 186 174 170 163 177 183 188 190 179 164 165 165 155 148 144 151 154 157 151 148 153 147 143 141 131 124 126 112 78 59 110 64 114 115 176 119 20 17 19 23
Wind_Speed_850mb
34 33 31 29 26 26 26 23 22 26 23 28 33 33 34 41 40 46 61 63 46 34 25 22 35 35 33 25 18 18 17 14 16 20 19 20 18 11 7 10 13 23 25
33 31 26 22 20 24 24 22 22 23 24 34 32 35 36 37 40 51 67 51 42 27 21 28 32 33 35 27 21 21 21 16 18 21 19 19 8 7 11 11 18 24 23
30 26 19 16 17 20 19 19 20 24 32 37 32 33 36 41 50 60 50 35 37 29 25 23 31 33 35 29 26 24 20 18 19 23 19 10 5 13 14 23 22 22 23
20 14 11 10 12 10 12 20 19 18 32 29 42 40 46 55 49 37 28 30 27 34 38 37 33 30 40 34 30 23 21 24 22 25 18 6 10 18 16 19 21 22 23
11 7 7 6 5 13 12 15 16 18 24 30 33 43 49 46 39 37 35 37 44 47 43 36 31 31 46 41 29 24 29 27 25 26 14 6 10 17 16 16 20 22 20
13 10 7 4 8 12 13 15 17 15 23 27 34 49 51 40 41 40 40 44 44 38 35 34 29 26 31 40 28 26 28 27 26 22 9 9 13 14 14 19 20 21 21
12 3 2 4 10 10 13 7 10 16 23 39 61 48 47 57 41 46 44 41 35 25 29 36 41 41 37 30 25 24 27 28 23 18 9 7 15 13 15 19 19 20 20
10 9 6 7 8 9 8 3 13 18 29 35 38 42 29 38 60 56 42 40 43 44 44 48 43 28 18 16 32 28 24 26 21 16 9 9 10 15 13 14 15 18 18
11 9 6 10 17 2 5 12 17 23 26 43 44 29 25 19 64 63 64 69 67 55 41 35 28 23 30 23 26 24 21 26 22 15 7 10 10 12 8 15 18 13 16
10 9 5 13 19 10 6 17 16 29 33 46 43 40 22 66 37 44 66 55 55 49 44 33 29 26 25 26 19 18 20 24 19 15 5 7 4 8 7 12 10 12 14
9 8 7 10 15 4 7 8 13 29 22 38 58 46 44 58 67 69 60 65 56 54 45 28 20 16 19 16 14 16 20 22 21 15 4 2 11 8 9 7 5 8 9
8 4 6 7 10 6 1 12 3 12 29 35 48 44 53 68 66 52 61 50 47 43 36 29 28 22 16 11 10 17 21 20 15 12 8 9 15 20 20 17 6 4 5
5 4 6 6 5 9 14 12 13 21 27 43 34 47 57 67 48 31 35 51 40 36 31 32 27 17 12 4 10 15 17 15 13 14 4 12 16 19 21 24 13 9 11
6 3 3 7 9 10 9 9 8 19 32 41 38 37 29 41 41 37 49 52 46 31 28 24 16 16 12 11 11 11 15 16 12 9 9 11 18 20 25 23 17 14 15
7 3 4 4 5 5 9 12 12 16 30 29 32 32 28 34 30 20 40 47 49 31 25 23 21 18 14 12 11 8 9 13 8 7 7 12 19 22 25 25 22 21 21
7 6 3 5 6 10 12 14 13 26 34 39 38 21 31 34 36 34 44 44 39 34 28 27 21 19 20 16 17 11 10 12 7 7 6 11 17 18 21 27 27 24 21
9 7 6 6 10 16 6 9 18 18 31 34 30 24 22 33 40 38 42 42 37 21 5 21 24 22 25 18 15 15 13 11 5 7 7 13 16 19 20 23 27 27 27
9 8 8 8 11 14 14 21 24 34 36 30 35 29 34 40 37 33 32 34 37 27 18 16 30 29 22 23 19 14 14 9 6 7 9 14 18 14 18 24 30 36 38
14 17 14 12 20 17 19 20 30 34 39 35 37 37 43 36 31 25 15 25 26 24 12 11 23 25 21 22 17 12 5 2 3 3 8 15 16 17 21 27 31 36 41
11 17 17 26 29 23 20 34 31 31 33 38 39 39 36 29 24 22 27 25 23 17 14 17 20 25 22 21 15 9 9 6 4 6 9 13 14 19 23 29 33 35 38
24 28 30 29 22 23 25 30 39 32 38 40 32 37 32 30 23 24 26 22 16 17 16 17 21 23 22 20 17 15 13 9 4 2 4 4 8 15 22 27 27 28 31
31 32 31 26 17 25 27 30 40 40 44 33 30 30 38 31 29 22 19 17 18 15 21 18 21 19 19 22 22 19 18 17 11 9 4 6 12 15 15 19 24 23 24
34 33 31 26 24 31 31 28 33 48 38 29 27 30 29 23 18 22 21 26 30 25 18 16 14 14 16 15 11 12 13 15 14 9 8 2 5 9 12 15 19 26 30
30 27 22 25 25 33 31 30 31 36 36 30 28 27 24 20 21 20 24 32 31 26 20 18 17 15 14 11 9 7 8 8 7 5 6 7 3 4 8 16 22 28 30
30 27 22 24 25 31 33 29 29 39 36 31 30 29 30 29 25 23 27 26 23 22 19 15 12 10 10 9 8 7 6 4 3 8 11 7 4 2 4 12 20 26 28
25 27 25 26 27 33 33 36 30 36 38 36 31 36 34 33 35 32 21 20 21 19 16 13 13 11 10 7 6 6 4 3 6 9 7 9 8 6 1 10 18 19 24
Wind_Direction_850mb
302 298 294 288 276 266 254 241 241 227 229 214 211 229 204 217 208 198 191 189 171 165 149 159 173 172 177 183 168 149 151 114 111 115 109 109 114 92 64 16 43 71 66
309 306 301 291 272 258 242 239 240 229 209 209 208 209 207 213 205 190 183 165 149 145 117 155 177 180 177 186 168 165 136 119 120 118 116 132 109 29 5 8 74 72 69
309 307 298 279 270 259 244 241 242 235 209 205 191 197 201 185 171 156 153 174 186 203 212 196 190 189 181 181 165 151 130 132 127 123 136 118 40 2 11 79 81 80 70
309 310 300 275 277 305 244 234 243 220 209 211 207 203 194 178 166 175 185 186 199 183 181 180 192 196 185 167 159 147 139 133 127 136 144 106 14 7 63 79 79 73 67
315 303 295 280 311 311 235 214 239 209 202 199 200 199 196 186 197 183 185 177 177 181 175 177 191 203 169 162 147 136 137 131 133 144 146 97 17 4 73 89 84 78 66
336 331 312 304 313 307 216 221 235 224 200 191 178 172 166 181 188 182 190 182 180 174 176 178 189 162 130 140 133 139 141 138 143 147 130 37 21 16 93 86 75 72 63
322 257 5 351 337 324 236 260 205 204 198 205 153 167 153 190 184 184 177 177 168 161 157 186 165 136 132 123 126 131 142 134 149 146 115 55 14 54 94 87 81 71 58
54 73 38 5 346 302 240 277 212 201 194 196 157 155 135 147 134 149 165 151 139 136 143 127 115 117 117 141 135 141 128 140 148 137 111 52 48 58 107 97 90 70 57
45 58 41 7 5 340 233 271 223 190 183 171 191 166 137 124 122 129 140 134 133 134 119 117 112 144 154 159 149 144 138 138 148 137 140 17 43 79 96 86 79 61 53
54 51 21 344 6 42 80 11 188 190 182 188 195 182 169 156 130 111 124 132 144 143 132 136 124 135 140 156 160 156 155 149 148 153 172 348 109 93 35 75 79 61 48
70 49 8 335 15 6 60 16 192 192 224 199 175 176 163 148 138 132 121 126 125 132 142 136 137 150 140 151 155 154 156 161 165 179 195 296 310 17 4 55 60 51 39
79 62 357 347 43 64 109 22 339 189 186 179 173 191 177 165 145 137 127 127 136 133 140 135 163 146 146 144 156 158 161 164 170 178 211 283 327 341 330 329 291 336 338
84 60 350 30 31 79 144 86 62 188 160 181 177 193 180 164 169 176 189 161 151 141 141 167 155 146 138 157 161 164 168 177 184 198 262 329 325 320 317 314 293 291 315
161 204 339 41 46 116 130 110 117 115 176 183 171 167 214 220 229 182 181 172 154 159 164 159 157 167 165 186 180 178 181 186 199 227 248 303 335 333 331 321 316 306 303
197 159 109 42 54 167 112 132 144 140 143 147 145 151 156 160 167 178 183 166 171 158 166 178 183 182 184 196 189 210 187 178 228 233 263 307 329 334 337 341 342 327 316
202 187 140 73 99 137 108 126 150 146 150 146 153 162 170 188 182 167 156 154 161 161 175 193 193 198 200 194 188 194 198 192 222 236 303 326 320 331 336 353 354 345 331
185 202 170 141 134 148 145 135 127 149 180 172 165 152 149 160 149 156 167 177 190 199 152 181 200 196 199 195 195 207 206 214 255 272 281 319 318 336 337 343 344 337 327
200 189 184 160 162 165 132 120 128 134 138 153 173 154 149 142 154 167 175 189 202 215 228 225 201 196 192 193 195 210 211 219 257 294 332 341 320 329 331 340 335 332 328
206 194 187 175 163 154 154 127 134 132 139 141 149 153 156 154 142 152 161 163 171 197 197 173 185 188 186 188 188 190 177 259 262 8 333 321 322 314 315 321 318 316 318
180 162 162 156 152 139 130 145 147 133 146 139 141 152 155 163 173 161 163 174 175 171 153 155 166 166 169 173 183 175 173 196 245 310 323 316 311 317 320 315 312 309 310
146 139 141 149 154 148 146 152 151 143 148 146 141 154 155 161 163 169 180 180 169 163 157 139 151 152 154 162 162 171 184 189 175 247 306 324 309 307 308 313 315 317 317
138 139 140 141 138 161 149 147 155 154 148 145 141 142 146 142 151 163 176 188 161 152 146 146 152 160 159 166 174 170 160 151 162 172 223 295 313 322 355 10 10 6 7
142 147 146 146 147 141 145 152 157 168 163 162 164 157 164 162 178 167 166 158 145 142 128 115 119 133 149 149 151 151 161 187 189 182 221 216 3 357 7 6 12 4 357
154 157 155 155 157 149 149 156 159 164 172 176 178 179 186 180 171 175 162 159 154 148 148 137 138 143 140 144 155 173 185 189 187 153 147 148 79 20 14 3 357 355 355
166 170 177 168 171 175 167 174 181 187 181 180 180 175 183 177 165 161 162 160 153 149 143 139 141 136 131 135 137 147 158 152 129 95 103 108 64 332 331 8 8 1 359
184 183 186 186 174 170 163 177 183 188 190 179 164 165 165 155 148 144 151 154 157 151 148 153 147 143 141 131 124 126 112 78 59 110 64 114 115 176 119 20 17 19 23